Date Time,Air Temp,Sky Temp,Clarity,Light Level,Rain Sensor,Readings
2017-11-25 00:00:03,16.9,-21.9,38.8,0.0,2.6,112
2017-11-25 00:05:03,16.8,-22.7,39.5,0.0,2.6,112
2017-11-25 00:10:03,16.7,-22.9,39.6,0.0,2.6,111
2017-11-25 00:15:03,16.5,-22.8,39.3,0.0,2.5,112
2017-11-25 00:20:03,16.4,-22.6,39.0,0.0,2.4,111
2017-11-25 00:25:03,16.4,-22.3,38.7,0.0,2.4,112
2017-11-25 00:30:03,16.4,-22.0,38.5,0.0,2.5,112
2017-11-25 00:35:03,16.4,-22.8,39.3,0.0,2.5,112
2017-11-25 00:40:03,16.4,-22.7,39.1,0.0,2.4,112
2017-11-25 00:45:03,16.4,-22.7,39.1,0.0,2.4,111
2017-11-25 00:50:03,16.3,-22.2,38.5,0.0,2.4,112
2017-11-25 00:55:03,16.2,-22.2,38.4,0.0,2.4,112
2017-11-25 01:00:03,16.2,-22.0,38.1,0.0,2.4,111
2017-11-25 01:05:03,15.8,-21.3,37.1,0.0,2.3,111
2017-11-25 01:10:03,16.0,-20.2,36.2,0.0,2.3,112
2017-11-25 01:15:03,16.1,-19.5,35.6,0.0,2.3,111
2017-11-25 01:20:03,16.3,-18.2,34.5,0.0,2.3,111
2017-11-25 01:25:03,16.6,-18.1,34.6,0.0,2.5,112
2017-11-25 01:30:03,16.7,-19.9,36.6,0.0,2.6,112
2017-11-25 01:35:03,16.7,-20.8,37.5,0.0,2.5,111
2017-11-25 01:40:03,16.5,-21.0,37.5,0.0,2.5,112
2017-11-25 01:45:03,16.3,-21.4,37.8,0.0,2.4,111
2017-11-25 01:50:03,16.2,-21.5,37.7,0.0,2.4,112
2017-11-25 01:55:03,16.0,-21.4,37.5,0.0,2.3,111
2017-11-25 02:00:03,15.9,-20.7,36.6,0.0,2.3,112
2017-11-25 02:05:03,15.9,-19.9,35.8,0.0,2.3,111
2017-11-25 02:10:03,15.9,-20.8,36.7,0.0,2.3,112
2017-11-25 02:15:03,15.8,-21.0,36.8,0.0,2.3,112
2017-11-25 02:20:03,15.6,-21.9,37.5,0.0,2.2,111
2017-11-25 02:25:03,15.4,-22.2,37.6,0.0,2.2,112
2017-11-25 02:30:03,15.4,-22.7,38.1,0.0,2.1,112
2017-11-25 02:35:03,15.3,-22.6,37.9,0.0,2.0,112
2017-11-25 02:40:03,15.5,-22.5,38.0,0.0,1.9,111
2017-11-25 02:45:03,15.5,-22.2,37.7,0.0,1.9,111
2017-11-25 02:50:03,15.5,-22.2,37.7,0.0,1.8,112
2017-11-25 02:55:03,15.5,-22.0,37.5,0.0,1.8,111
2017-11-25 03:00:03,15.4,-22.0,37.5,0.0,1.8,112
2017-11-25 03:05:03,15.3,-21.6,36.9,0.0,1.8,111
2017-11-25 03:10:03,15.2,-20.8,36.0,0.0,1.9,112
2017-11-25 03:15:03,15.2,-19.1,34.3,0.0,2.0,111
2017-11-25 03:20:03,15.3,-20.6,35.9,0.0,2.1,112
2017-11-25 03:25:03,15.4,-19.8,35.2,0.0,2.2,111
2017-11-25 03:30:03,15.5,-15.9,31.4,0.0,1.9,112
2017-11-25 03:35:03,15.5,-16.2,31.8,0.0,2.0,111
2017-11-25 03:40:03,15.5,-15.6,31.2,0.0,2.2,111
2017-11-25 03:45:03,15.6,-15.7,31.3,0.0,2.3,112
2017-11-25 03:50:03,15.7,-18.2,33.9,0.0,2.3,111
2017-11-25 03:55:03,15.8,-19.1,34.9,0.0,2.4,111
2017-11-25 04:00:03,15.9,-17.3,33.2,0.0,2.4,112
2017-11-25 04:05:03,15.8,-14.2,29.9,0.0,2.3,111
2017-11-25 04:10:03,15.8,-6.9,22.7,0.0,2.3,112
2017-11-25 04:15:03,14.7,-5.4,20.1,0.0,6.5,112
2017-11-25 04:20:03,13.9,-4.9,18.9,0.0,3.0,111
2017-11-25 04:25:03,12.3,-4.1,16.5,0.0,2.5,113
2017-11-25 04:30:03,11.7,-3.7,15.4,0.0,2.5,111
2017-11-25 04:35:03,11.5,-5.7,17.2,0.0,2.5,111
2017-11-25 04:40:03,11.9,-7.5,19.5,0.0,2.5,112
2017-11-25 04:45:03,12.8,-7.3,20.1,0.0,2.5,112
2017-11-25 04:50:03,14.1,-9.5,23.6,0.0,2.3,112
2017-11-25 04:55:03,15.5,-14.5,30.0,0.0,2.0,111
2017-11-25 05:00:03,15.8,-16.1,31.9,0.0,2.3,112
2017-11-25 05:05:03,15.9,-15.5,31.4,0.0,2.4,111
2017-11-25 05:10:03,15.9,-15.7,31.6,0.0,2.5,112
2017-11-25 05:15:03,15.9,-16.1,32.0,0.0,2.4,111
2017-11-25 05:20:03,15.9,-14.6,30.5,0.0,2.3,112
2017-11-25 05:25:03,15.8,-12.4,28.2,0.0,2.3,111
2017-11-25 05:30:03,15.8,-15.2,31.0,0.0,2.3,112
2017-11-25 05:35:03,15.8,-15.4,31.2,0.0,2.3,111
2017-11-25 05:40:03,15.8,-14.3,30.1,0.0,2.3,112
2017-11-25 05:45:03,15.7,-13.0,28.7,0.0,2.2,111
2017-11-25 05:50:03,15.6,-11.3,27.0,0.0,2.1,111
2017-11-25 05:55:03,15.6,-11.4,27.0,0.0,2.1,111
2017-11-25 06:00:03,15.6,-14.1,29.7,0.0,2.1,111
2017-11-25 06:05:03,15.5,-15.6,31.1,0.0,2.1,73
2017-11-25 06:10:03,15.4,-16.4,31.9,0.0,1.9,112
2017-11-25 06:15:03,15.4,-16.8,32.2,0.0,1.8,111
2017-11-25 06:20:03,15.3,-17.4,32.7,0.0,1.9,111
2017-11-25 06:25:03,15.2,-17.9,33.1,0.0,2.0,112
2017-11-25 06:30:03,15.2,-19.3,34.5,0.0,2.0,112
2017-11-25 06:35:04,15.0,-22.1,37.0,0.1,2.1,111
2017-11-25 06:40:04,15.2,-23.4,38.6,0.2,2.1,111
2017-11-25 06:45:04,15.1,-23.7,38.8,0.4,2.2,111
2017-11-25 06:50:04,15.1,-23.5,38.6,0.8,2.3,112
2017-11-25 06:55:04,15.2,-24.1,39.3,1.7,2.4,111
2017-11-25 07:00:04,14.9,-24.1,39.0,3.4,2.4,111
2017-11-25 07:05:04,15.0,-23.9,38.9,6.4,2.4,111
2017-11-25 07:10:04,15.0,-23.6,38.5,11.2,2.4,112
2017-11-25 07:15:04,14.6,-23.5,38.2,17.3,2.4,111
2017-11-25 07:20:04,14.9,-23.8,38.7,22.4,2.3,112
2017-11-25 07:25:04,14.8,-24.2,39.0,25.9,2.3,111
2017-11-25 07:30:04,14.8,-24.3,39.1,28.1,2.4,111
2017-11-25 07:35:04,14.7,-24.5,39.3,29.4,2.4,111
2017-11-25 07:40:04,14.7,-24.5,39.2,30.3,2.4,112
2017-11-25 07:45:04,14.8,-24.5,39.4,30.8,2.4,111
2017-11-25 07:50:04,14.8,-24.4,39.2,31.2,2.4,111
2017-11-25 07:55:04,14.8,-24.2,39.0,31.4,2.4,111
2017-11-25 08:00:04,14.8,-24.2,39.0,31.6,2.3,111
2017-11-25 08:05:04,14.8,-24.2,39.0,31.7,2.4,112
2017-11-25 08:10:04,14.8,-24.2,39.1,31.9,2.4,111
2017-11-25 08:15:04,14.9,-24.2,39.1,32.0,2.4,111
2017-11-25 08:20:04,14.9,-24.4,39.4,32.0,2.4,112
2017-11-25 08:25:04,14.9,-24.3,39.2,32.0,2.4,111
2017-11-25 08:30:04,14.9,-24.1,39.0,32.0,2.3,111
2017-11-25 08:35:04,14.9,-23.8,38.7,32.1,2.4,112
2017-11-25 08:40:04,14.6,-23.5,38.2,32.1,2.4,111
2017-11-25 08:45:04,14.9,-23.6,38.6,32.1,2.3,111
2017-11-25 08:50:04,15.0,-23.5,38.5,32.1,2.4,112
2017-11-25 08:55:04,15.0,-23.0,38.1,32.1,2.4,111
2017-11-25 09:00:04,15.1,-23.0,38.1,32.2,2.3,112
2017-11-25 09:05:04,15.2,-22.8,38.0,32.2,2.0,111
2017-11-25 09:10:04,15.3,-22.8,38.1,32.2,1.8,112
2017-11-25 09:15:04,15.3,-22.8,38.1,32.2,1.8,112
2017-11-25 09:20:04,15.3,-23.2,38.5,32.2,1.8,111
2017-11-25 09:25:04,15.4,-23.1,38.5,32.2,1.9,111
2017-11-25 09:30:04,15.4,-23.1,38.6,32.2,1.9,112
2017-11-25 09:35:04,15.5,-23.5,39.0,32.2,2.1,111
2017-11-25 09:40:04,15.5,-23.9,39.4,32.2,2.2,112
2017-11-25 09:45:04,15.5,-23.8,39.3,32.2,2.2,111
2017-11-25 09:50:04,15.5,-23.9,39.4,32.2,2.2,111
2017-11-25 09:55:04,15.5,-23.8,39.3,32.2,2.2,112
2017-11-25 10:00:04,15.6,-23.6,39.2,32.3,2.3,111
2017-11-25 10:05:04,15.7,-23.4,39.2,32.3,2.3,111
2017-11-25 10:10:04,15.8,-23.4,39.3,32.3,2.3,112
2017-11-25 10:15:04,15.9,-23.0,38.9,32.3,2.4,111
2017-11-25 10:20:04,16.0,-22.9,38.9,32.3,2.5,112
2017-11-25 10:25:04,16.2,-21.5,37.7,32.4,2.6,111
2017-11-25 10:30:04,17.1,-21.0,38.0,32.5,2.5,112
2017-11-25 10:35:04,18.0,-20.6,38.6,32.5,2.3,111
2017-11-25 10:40:04,18.5,-21.0,39.5,32.5,2.3,112
2017-11-25 10:45:04,18.8,-20.9,39.7,32.5,2.3,112
2017-11-25 10:50:04,19.0,-20.6,39.6,32.5,2.4,112
2017-11-25 10:55:04,19.2,-20.3,39.6,32.5,2.3,111
2017-11-25 11:00:04,19.4,-20.3,39.7,32.5,2.3,112
2017-11-25 11:05:04,19.5,-20.1,39.6,32.5,2.5,112
2017-11-25 11:10:04,19.7,-20.3,40.0,32.5,2.3,111
2017-11-25 11:15:04,19.8,-20.0,39.8,32.5,2.3,112
2017-11-25 11:20:04,19.9,-19.8,39.7,32.5,2.3,112
2017-11-25 11:25:04,20.0,-20.0,40.0,32.5,2.3,111
2017-11-25 11:30:04,20.1,-19.6,39.6,32.5,2.2,112
2017-11-25 11:35:04,20.2,-19.4,39.6,32.5,2.3,112
2017-11-25 11:40:04,20.2,-19.0,39.3,32.6,2.3,111
2017-11-25 11:45:04,20.5,-18.1,38.6,32.6,2.3,111
2017-11-25 11:50:04,20.7,-18.2,38.9,32.6,2.3,112
2017-11-25 11:55:04,20.8,-17.8,38.6,32.6,2.5,112
2017-11-25 12:00:04,20.5,-18.2,38.7,32.6,2.6,111
2017-11-25 12:05:04,20.9,-18.2,39.0,32.6,2.7,112
2017-11-25 12:10:04,20.9,-17.7,38.6,32.6,2.7,112
2017-11-25 12:15:04,21.0,-17.4,38.3,32.6,2.6,111
2017-11-25 12:20:04,21.0,-15.2,36.2,32.6,2.4,112
2017-11-25 12:25:04,21.2,-13.4,34.5,32.6,2.3,111
2017-11-25 12:30:04,21.3,-17.2,38.5,32.6,2.3,111
2017-11-25 12:35:04,21.3,-17.0,38.3,32.6,2.3,111
2017-11-25 12:40:04,21.4,-17.0,38.4,32.6,2.3,112
2017-11-25 12:45:04,21.4,-14.9,36.3,32.6,2.3,112
2017-11-25 12:50:04,21.0,-11.6,32.7,32.6,2.3,111
2017-11-25 12:55:04,21.6,-9.7,31.3,32.6,2.3,111
2017-11-25 13:00:04,21.4,-15.9,37.3,32.6,2.3,112
2017-11-25 13:05:04,21.4,-16.7,38.1,32.6,2.3,111
2017-11-25 13:10:04,21.4,-16.9,38.3,32.6,2.3,112
2017-11-25 13:15:04,21.5,-17.7,39.2,32.6,2.3,112
2017-11-25 13:20:04,21.1,-16.3,37.4,32.5,2.3,111
2017-11-25 13:25:04,20.7,-19.6,40.3,32.5,2.6,112
2017-11-25 13:30:04,20.2,-18.1,38.3,32.5,2.5,112
2017-11-25 13:35:04,20.2,-18.1,38.3,32.5,2.4,111
2017-11-25 13:40:04,20.3,-18.5,38.8,32.5,2.4,112
2017-11-25 13:45:04,20.2,-16.7,36.9,32.6,2.3,111
2017-11-25 13:50:04,20.5,-12.5,33.0,32.6,2.4,112
2017-11-25 13:55:04,21.2,-12.9,34.1,32.6,2.5,111
2017-11-25 14:00:04,21.3,-17.4,38.7,32.6,2.3,112
2017-11-25 14:05:04,21.0,-18.0,39.0,32.6,2.3,111
2017-11-25 14:10:04,20.9,-17.9,38.7,32.6,2.3,112
2017-11-25 14:15:04,20.7,-17.3,38.1,32.5,2.3,111
2017-11-25 14:20:04,20.4,-8.4,28.9,32.5,2.3,112
2017-11-25 14:25:04,19.9,-8.4,28.3,32.5,2.5,111
2017-11-25 14:30:04,19.3,-14.3,33.6,32.4,2.3,112
2017-11-25 14:35:04,19.1,-13.7,32.8,32.5,2.2,112
2017-11-25 14:40:04,19.6,-18.3,37.9,32.6,2.3,111
2017-11-25 14:45:04,20.0,-18.6,38.6,32.6,2.3,112
2017-11-25 14:50:04,20.0,-18.8,38.7,32.6,2.3,112
2017-11-25 14:55:04,20.0,-18.6,38.5,32.5,2.3,111
2017-11-25 15:00:04,19.7,-17.6,37.3,32.5,2.3,112
2017-11-25 15:05:04,19.4,-19.2,38.6,32.5,2.3,111
2017-11-25 15:10:04,19.2,-19.5,38.7,32.5,2.2,112
2017-11-25 15:15:04,19.2,-19.9,39.0,32.5,2.2,112
2017-11-25 15:20:04,19.1,-19.3,38.4,32.5,2.3,111
2017-11-25 15:25:04,19.0,-20.6,39.6,32.4,2.3,112
2017-11-25 15:30:04,18.7,-20.0,38.7,32.4,2.4,111
2017-11-25 15:35:04,18.6,-20.1,38.6,32.4,2.3,112
2017-11-25 15:40:04,18.5,-20.0,38.5,32.4,2.3,112
2017-11-25 15:45:04,18.4,-20.0,38.4,32.3,2.3,112
2017-11-25 15:50:04,18.3,-20.1,38.4,32.2,2.3,111
2017-11-25 15:55:04,18.1,-20.5,38.6,32.1,2.4,112
2017-11-25 16:00:04,17.8,-21.1,38.9,31.8,2.3,112
2017-11-25 16:05:04,17.5,-21.5,39.0,31.4,2.3,111
2017-11-25 16:10:04,17.2,-21.7,38.8,31.0,2.3,112
2017-11-25 16:15:04,17.1,-21.7,38.8,30.4,2.3,111
2017-11-25 16:20:04,17.0,-21.8,38.9,29.5,2.3,112
2017-11-25 16:25:04,17.0,-21.9,38.9,27.9,2.3,112
2017-11-25 16:30:04,16.9,-21.9,38.9,25.3,2.3,111
2017-11-25 16:35:04,16.9,-21.8,38.7,21.3,2.3,111
2017-11-25 16:40:04,16.9,-22.1,39.0,15.9,2.3,112
2017-11-25 16:45:04,16.8,-22.3,39.1,10.4,2.3,112
2017-11-25 16:50:04,16.7,-22.4,39.1,6.2,2.3,111
2017-11-25 16:55:04,16.3,-22.2,38.5,3.4,2.3,112
2017-11-25 17:00:04,16.5,-22.2,38.7,1.8,2.3,111
2017-11-25 17:05:04,16.5,-22.1,38.6,0.9,2.4,112
2017-11-25 17:10:04,16.4,-22.1,38.5,0.5,2.4,111
2017-11-25 17:15:04,16.3,-22.6,38.9,0.2,2.3,112
2017-11-25 17:20:04,16.3,-22.8,39.1,0.1,2.4,111
2017-11-25 17:25:04,16.3,-22.8,39.1,0.0,2.4,112
2017-11-25 17:30:04,16.3,-22.8,39.1,0.0,2.4,111
2017-11-25 17:35:04,16.3,-22.5,38.8,0.0,2.4,112
2017-11-25 17:40:04,16.3,-22.4,38.7,0.0,2.4,112
2017-11-25 17:45:04,16.3,-22.3,38.6,0.0,2.4,111
2017-11-25 17:50:04,16.1,-22.5,38.6,0.0,2.5,112
2017-11-25 17:55:04,16.0,-22.5,38.5,0.0,2.5,112
2017-11-25 18:00:04,15.9,-22.3,38.2,0.0,2.5,111
2017-11-25 18:05:04,15.8,-22.2,38.0,0.0,2.4,112
2017-11-25 18:10:04,15.6,-22.5,38.1,0.0,2.4,112
2017-11-25 18:15:04,15.4,-23.0,38.3,0.0,2.3,111
2017-11-25 18:20:04,15.1,-23.0,38.1,0.0,2.2,112
2017-11-25 18:25:04,15.1,-22.9,38.0,0.0,2.2,111
2017-11-25 18:30:04,15.0,-22.9,37.9,0.0,2.1,112
2017-11-25 18:35:04,14.9,-22.8,37.8,0.0,2.1,112
2017-11-25 18:40:04,15.1,-22.7,37.8,0.0,2.1,111
2017-11-25 18:45:04,15.1,-22.5,37.6,0.0,2.1,112
2017-11-25 18:50:04,15.0,-22.3,37.3,0.0,2.1,112
2017-11-25 18:55:04,15.0,-22.0,37.0,0.0,2.1,111
2017-11-25 19:00:04,15.1,-21.8,37.0,0.0,2.1,111
2017-11-25 19:05:04,15.1,-21.9,37.0,0.0,2.1,111
2017-11-25 19:10:04,15.1,-21.7,36.8,0.0,2.1,112
2017-11-25 19:15:04,15.1,-21.6,36.7,0.0,2.0,111
2017-11-25 19:20:04,15.0,-21.6,36.6,0.0,2.0,111
2017-11-25 19:25:04,15.1,-21.4,36.4,0.0,2.1,112
2017-11-25 19:30:04,15.0,-21.8,36.8,0.0,2.1,111
2017-11-25 19:35:04,15.0,-22.0,37.0,0.0,2.1,112
2017-11-25 19:40:04,15.0,-22.1,37.1,0.0,2.2,111
2017-11-25 19:45:04,15.1,-22.1,37.2,0.0,2.2,112
2017-11-25 19:50:04,15.1,-22.2,37.3,0.0,2.2,111
2017-11-25 19:55:04,15.1,-22.3,37.4,0.0,2.2,112
2017-11-25 20:00:04,15.0,-22.4,37.4,0.0,2.0,112
2017-11-25 20:05:04,14.7,-22.3,37.1,0.0,1.9,111
2017-11-25 20:10:04,14.8,-22.7,37.5,0.0,1.9,112
2017-11-25 20:15:04,14.7,-22.9,37.6,0.0,1.8,111
2017-11-25 20:20:04,14.8,-22.8,37.6,0.0,1.8,112
2017-11-25 20:25:04,14.6,-22.6,37.2,0.0,1.8,112
2017-11-25 20:30:04,15.0,-22.4,37.5,0.0,1.9,111
2017-11-25 20:35:04,15.2,-22.5,37.7,0.0,2.0,112
2017-11-25 20:40:04,15.3,-22.5,37.8,0.0,2.1,112
2017-11-25 20:45:04,15.2,-22.8,38.1,0.0,2.1,112
2017-11-25 20:50:04,15.1,-22.9,38.0,0.0,2.1,111
2017-11-25 20:55:04,15.1,-22.8,37.9,0.0,2.1,112
2017-11-25 21:00:04,15.1,-22.6,37.7,0.0,2.1,111
2017-11-25 21:05:04,15.0,-22.5,37.5,0.0,2.1,112
2017-11-25 21:10:04,15.0,-22.5,37.6,0.0,2.1,111
2017-11-25 21:15:04,15.1,-22.5,37.6,0.0,2.1,112
2017-11-25 21:20:04,15.1,-22.6,37.6,0.0,2.0,111
2017-11-25 21:25:04,15.1,-22.7,37.7,0.0,2.0,112
2017-11-25 21:30:04,15.0,-22.6,37.6,0.0,1.9,112
2017-11-25 21:35:04,15.0,-22.6,37.6,0.0,2.0,112
2017-11-25 21:40:04,15.0,-22.8,37.8,0.0,2.0,112
2017-11-25 21:45:05,14.9,-22.9,37.8,0.0,2.0,111
2017-11-25 21:50:05,14.9,-22.9,37.8,0.0,2.0,112
2017-11-25 21:55:05,14.9,-22.8,37.7,0.0,2.0,112
2017-11-25 22:00:05,14.8,-22.8,37.6,0.0,1.9,112
2017-11-25 22:05:05,15.0,-22.9,37.9,0.0,2.1,112
2017-11-25 22:10:05,15.1,-22.9,37.9,0.0,2.2,112
2017-11-25 22:15:05,15.1,-22.9,38.0,0.0,2.1,111
2017-11-25 22:20:05,15.1,-22.6,37.8,0.0,2.0,112
2017-11-25 22:25:05,15.1,-22.7,37.8,0.0,2.0,112
2017-11-25 22:30:05,15.1,-22.5,37.5,0.0,2.0,111
2017-11-25 22:35:05,14.9,-22.5,37.4,0.0,1.9,112
2017-11-25 22:40:05,15.0,-22.7,37.7,0.0,1.9,111
2017-11-25 22:45:05,15.1,-22.5,37.6,0.0,2.0,112
2017-11-25 22:50:05,15.2,-22.7,37.8,0.0,2.0,112
2017-11-25 22:55:05,15.2,-22.7,37.8,0.0,2.1,112
2017-11-25 23:00:05,15.2,-22.7,37.9,0.0,2.1,111
2017-11-25 23:05:05,15.2,-22.6,37.8,0.0,2.1,112
2017-11-25 23:10:05,15.1,-22.5,37.7,0.0,2.0,112
2017-11-25 23:15:05,15.0,-22.5,37.5,0.0,2.0,112
2017-11-25 23:20:05,14.9,-22.5,37.5,0.0,2.0,112
2017-11-25 23:25:05,14.9,-22.3,37.2,0.0,2.0,111
2017-11-25 23:30:05,14.9,-22.1,37.0,0.0,2.0,112
2017-11-25 23:35:05,14.9,-20.8,35.7,0.0,2.0,111
2017-11-25 23:40:05,14.8,-20.3,35.2,0.0,1.9,112
2017-11-25 23:45:05,14.8,-21.5,36.3,0.0,1.8,112
2017-11-25 23:50:05,14.8,-22.6,37.4,0.0,1.8,112
2017-11-25 23:55:05,14.7,-22.7,37.4,0.0,1.8,111
